Frederick, OK

7:03 AM CST on February 08, 2016 (GMT -0600)
Frederick Municipal

Weather History for KFDR - March, 2013

Change the Weather History Date:

Saturday, March 23, 2013

  Actual Average (KLTS) Record (KLTS)
Temperature  
Mean Temperature 44 °F -  
Max Temperature 51 °F 65 °F 85 °F (2009)
Min Temperature 37 °F 41 °F 28 °F (2006)
Degree Days  
Heating Degree Days 22    
Moisture  
Dew Point 39 °F    
Average Humidity 78    
Maximum Humidity 93    
Minimum Humidity 71    
Precipitation  
Precipitation 0.00 in - - ()
Sea Level Pressure  
Sea Level Pressure 29.78 in    
Wind  
Wind Speed 11 mph (NE)    
Max Wind Speed 25 mph    
Max Gust Speed 33 mph    
Visibility 8 miles    
Events Rain    
Averages and records for this station are not official NWS values.
T = Trace of Precipitation, MM = Missing Value Source: NWS Daily Summary

Daily Weather History Graph

Daily Weather History Graph

Search for Another Location

Airport or City:

Trip Planner

Search our weather history database for the weather conditions in past years. The results will help you decide how hot, cold, wet, or windy it might be!

Date:

Astronomy

Mar. 23, 2013 Rise Set
Actual Time 7:35 AM CDT 7:50 PM CDT
Civil Twilight 7:09 AM CDT 8:15 PM CDT
Nautical Twilight 6:40 AM CDT 8:44 PM CDT
Astronomical Twilight 6:10 AM CDT 9:14 PM CDT
Moon 4:26 PM CDT (3/23) 5:03 AM CDT (3/23)
Length of Visible Light 13h 05m
Length of Day
12h 15m
Waxing Gibbous, 85% of the Moon is Illuminated
Mar 23
Waxing Gibbous
Mar 27
Full
Apr 2
Last Quarter
Apr 10
New
Apr 18
First Quarter

Hourly Weather History & Observations

Time (CDT) Temp. Windchill Dew Point Humidity Pressure Visibility Wind Dir Wind Speed Gust Speed Precip Events Conditions
12:00 AM 44.6 °F 38.8 °F 35.6 °F 71% 29.82 in 9.0 mi NE 11.5 mph - N/A   Overcast
12:53 AM 45.0 °F 40.1 °F 36.0 °F 71% 29.83 in 9.0 mi ENE 9.2 mph - N/A   Overcast
1:53 AM 45.0 °F 39.3 °F 37.0 °F 74% 29.81 in 9.0 mi East 11.5 mph - N/A   Overcast
2:53 AM 45.0 °F 39.7 °F 37.0 °F 74% 29.79 in 10.0 mi East 10.4 mph - N/A   Overcast
3:53 AM 45.0 °F 41.2 °F 37.0 °F 74% 29.79 in 10.0 mi ESE 6.9 mph - N/A   Overcast
4:53 AM 45.0 °F 41.8 °F 37.0 °F 74% 29.78 in 9.0 mi East 5.8 mph - N/A   Overcast
5:53 AM 44.1 °F 38.6 °F 37.0 °F 76% 29.76 in 9.0 mi East 10.4 mph - N/A   Overcast
6:21 AM 44.6 °F 40.2 °F 37.4 °F 76% 29.76 in 8.0 mi East 8.1 mph - N/A   Overcast
6:53 AM 44.1 °F 40.1 °F 37.9 °F 79% 29.79 in 6.0 mi SSE 6.9 mph - 0.00 in   Haze
7:53 AM 44.1 °F 40.8 °F 37.9 °F 79% 29.77 in 5.0 mi East 5.8 mph - N/A   Haze
8:53 AM 44.1 °F 40.8 °F 39.0 °F 82% 29.79 in 4.0 mi ENE 5.8 mph - N/A   Haze
9:53 AM 45.0 °F 41.2 °F 39.0 °F 80% 29.80 in 4.0 mi ENE 6.9 mph - N/A   Haze
10:53 AM 45.0 °F 41.8 °F 39.9 °F 82% 29.80 in 4.0 mi ENE 5.8 mph - N/A   Haze
11:13 AM 44.6 °F 42.2 °F 39.2 °F 81% 29.80 in 4.0 mi ENE 4.6 mph - N/A   Haze
11:53 AM 46.0 °F 42.5 °F 39.9 °F 79% 29.80 in 5.0 mi ENE 6.9 mph - N/A   Haze
12:40 PM 46.4 °F 42.9 °F 41.0 °F 81% 29.79 in 6.0 mi East 6.9 mph - N/A   Haze
12:53 PM 46.9 °F - 41.0 °F 80% 29.78 in 5.0 mi NE 9.2 mph - N/A   Haze
1:53 PM 48.0 °F - 41.0 °F 77% 29.75 in 6.0 mi Variable 4.6 mph - N/A   Haze
3:28 PM 50.0 °F - 42.8 °F 76% 29.71 in 8.0 mi ENE 6.9 mph - N/A   Overcast
3:38 PM 50.0 °F - 41.0 °F 71% 29.71 in 8.0 mi NNE 5.8 mph - N/A   Overcast
3:53 PM 50.0 °F - 42.1 °F 74% 29.70 in 8.0 mi NE 8.1 mph - N/A   Overcast
4:53 PM 50.0 °F - 41.0 °F 71% 29.68 in 10.0 mi ENE 9.2 mph - N/A   Overcast
5:36 PM 48.2 °F - 41.0 °F 76% 29.69 in 10.0 mi ENE 11.5 mph - N/A   Overcast
5:53 PM 48.9 °F - 41.0 °F 74% 29.66 in 10.0 mi ENE 12.7 mph - N/A   Overcast
6:14 PM 48.2 °F - 41.0 °F 76% 29.66 in 10.0 mi ENE 10.4 mph - N/A   Overcast
6:21 PM 48.2 °F - 41.0 °F 76% 29.66 in 10.0 mi ENE 10.4 mph - N/A   Overcast
6:33 PM 48.2 °F - 41.0 °F 76% 29.64 in 10.0 mi ENE 11.5 mph - N/A   Overcast
6:53 PM 48.9 °F - 39.9 °F 71% 29.63 in 10.0 mi ENE 16.1 mph - N/A   Overcast
7:53 PM 48.0 °F - 39.9 °F 74% 29.68 in 10.0 mi NE 15.0 mph - N/A   Overcast
8:35 PM 44.6 °F 35.5 °F 39.2 °F 81% 29.80 in 6.0 mi North 25.3 mph 33.4 mph 0.00 in Rain Light Rain
8:53 PM 42.1 °F 32.3 °F 39.0 °F 89% 29.81 in 2.5 mi North 24.2 mph 33.4 mph 0.00 in   Overcast
9:04 PM 41.0 °F 31.6 °F 39.2 °F 93% 29.82 in 2.5 mi North 20.7 mph 32.2 mph N/A   Overcast
9:16 PM 41.0 °F 30.9 °F 37.4 °F 87% 29.83 in 4.0 mi North 24.2 mph 32.2 mph 0.00 in Rain Light Rain
9:53 PM 41.0 °F 30.9 °F 37.0 °F 86% 29.90 in 9.0 mi North 24.2 mph 29.9 mph 0.00 in   Overcast
10:28 PM 39.2 °F 29.8 °F 35.6 °F 87% 29.92 in 10.0 mi NNW 18.4 mph - 0.00 in   Overcast
10:53 PM 39.0 °F 29.6 °F 35.1 °F 86% 29.94 in 10.0 mi NNW 18.4 mph 28.8 mph 0.00 in   Overcast
11:16 PM 39.2 °F 30.5 °F 35.6 °F 87% 29.93 in 10.0 mi NNW 16.1 mph - N/A   Overcast
11:49 PM 37.4 °F 26.4 °F 32.0 °F 81% 29.94 in 10.0 mi NNW 23.0 mph 32.2 mph N/A   Scattered Clouds
11:53 PM 37.9 °F 27.3 °F 32.0 °F 79% 29.96 in 10.0 mi NNW 21.9 mph 32.2 mph N/A   Scattered Clouds